Content
SEND FEEDBACK

Daily
Averages
Monthly
Summary
United States of America

NEW YORK - CENTRAL PARK, NEW YORK


Home > North America > United States > New York
Elevation: 14 feet     Latitude: 40 47N     Longitude: 073 58W

WEATHER
 
SELECT A DAY
Number of Records: 153,223;   Date Range: 11/1/95 - 12/25/14
 
SHARE

PRINT THIS DATA

[ ← Previous Day ]
WEATHER ALMANAC - JANUARY 24, 2013
[ Next Day → ]
[ °C ]   °F
Weather ElementAverageHighLow
Temperature17.1 °F21.9 °F (1:51 pm)12 °F (7:51 am)
Dewpoint-1.9 °F1.9 °F (8:51 am)-7.1 °F (11:51 am)
Humidity44.4 %61 % (7:51 am)30 % (11:51 am)
Barometer30.25 in30.38 in (7:51 pm)30.13 in (2:51 am)
Wind Speed8.6 mph17.3 mph (12:51 pm)
Wind Gust31.1 mph (11:51 am)
Weather ElementAverage
Visibility10 mi
Wind DirectionS (176.5 °)

Weather ElementTotal
Precipitation---
Heating Degree Days48.1 (Base 65)
Averaged from 23 records on January 24, 2013
WEATHER CONDITIONS BREAKOUT
WIND DIRECTION BREAKOUT
WEATHER BY HOUR - JANUARY 24, 2013
[ °C ]   °F
Local TimeTemperatureDewpointHumidityBarometerVisibilityWind DirectionWind SpeedGust SpeedPrecipitationEventsConditions
1:51 AM15.1 °F0.0 °F51 %30.15 in10.0 miNW (320°)3.5 mphScattered Clouds
2:51 AM14.0 °F1.0 °F56 %30.13 in10.0 miVariable3.5 mphClear
3:51 AM14.0 °F1.0 °F56 %30.13 in10.0 miCalmClear
4:51 AM14.0 °F1.0 °F56 %30.14 in10.0 miVariable5.8 mphOvercast
5:51 AM14.0 °F1.0 °F56 %30.15 in10.0 miNE (50°)4.6 mphOvercast
6:51 AM12.9 °F1.0 °F59 %30.18 in10.0 miNNW (330°)5.8 mphMostly Cloudy
7:51 AM12.0 °F1.0 °F61 %30.19 in10.0 miVariable3.5 mphClear
8:51 AM14.0 °F1.9 °F59 %30.21 in10.0 miVariable5.8 mphClear
9:51 AM15.1 °F-0.9 °F49 %30.22 in10.0 miVariable6.9 mphClear
10:51 AM19.0 °F-0.9 °F42 %30.24 in10.0 miVariable3.5 mphClear
11:51 AM19.9 °F-7.1 °F30 %30.22 in10.0 miNW (310°)16.1 mph31.1 mphClear
12:51 PM21.0 °F-6.0 °F30 %30.22 in10.0 miWNW (300°)17.3 mph31.1 mphClear
1:51 PM21.9 °F-5.1 °F30 %30.23 in10.0 miNW (310°)17.3 mph28.8 mphPartly Cloudy
2:51 PM21.9 °F-4.0 °F32 %30.25 in10.0 miNW (320°)10.4 mph26.5 mphClear
3:51 PM21.9 °F-4.0 °F32 %30.27 in10.0 miNW (310°)15.0 mph27.6 mphClear
4:51 PM21.0 °F-4.0 °F33 %30.30 in10.0 miNW (310°)12.7 mph26.5 mphClear
5:51 PM19.9 °F-2.9 °F37 %30.34 in10.0 miWNW (300°)11.5 mph18.4 mphClear
6:51 PM19.0 °F-4.0 °F36 %30.36 in10.0 miWNW (300°)8.1 mph20.7 mphClear
7:51 PM18.0 °F-4.0 °F38 %30.38 in10.0 miVariable6.9 mphClear
8:51 PM17.1 °F-2.9 °F41 %30.37 in10.0 miWNW (300°)9.2 mph25.3 mphClear
9:51 PM17.1 °F-0.9 °F45 %30.38 in10.0 miNW (310°)12.7 mph19.6 mphClear
10:51 PM16.0 °F-2.0 °F45 %30.38 in10.0 miVariable6.9 mph19.6 mphClear
11:51 PM15.1 °F-2.0 °F47 %30.38 in10.0 miWNW (290°)11.5 mph24.2 mphClear
Hourly data recorded from KNYC, located miles away from New York - Central Park, New York







STORIES FROM OUR PARTNERS